Retour au catalogue

COSMOS 2247

ActifNavigationPO
NORAD 22648·PAYLOAD·🇷🇺 Russia

Lancé May 11, 1993 depuis Plesetsk Cosmodrome

Loading…

Prochains Passages (prochaines 24 heures)

TLE

FraisSource: Space-Track

Époque: Sep 14, 2026, 11:39 UTC

1 22648U 93030C   26257.48544032  .00000017  00000-0  33316-4 0  9997
2 22648  82.5742 258.9275 0009418  94.8253  59.5484 12.63282165537357

Suivez COSMOS 2247 en temps réel avec AllMySat

Download on the App Store